Overview Statistics Trail Chart Weather Telemetry Raw packets
 

This is the latest recevied weather packets stored in our database for station/object HOWARD. If no packets are shown the sender has not sent any weather packets the latest 10 day(s).

<< 52 53 54 55 56 57 58 >>
Time Temp. Humidity Pressure Rain* Wind** Luminosity Snow
1787916277 11.67° C 59% 1018.2 hPa 0 mm - - -
1787915677 11.11° C 60% 1018.1 hPa 0 mm - - -
1787915077 11.11° C 62% 1017.9 hPa 0 mm - - -
1787914477 11.11° C 63% 1017.9 hPa 0 mm - - -
1787913930 11.11° C 61% 1017.7 hPa 0 mm - - -
1787913877 11.11° C 61% 1017.7 hPa 0 mm - - -
1787913277 11.67° C 63% 1017.7 hPa 0 mm - - -
1787912678 10.56° C 65% 1018.3 hPa 0 mm - - -
1787912145 10.56° C 72% 1018.3 hPa 0 mm - - -
1787912077 10.56° C 72% 1018.3 hPa 0 mm - - -
1787911476 10.56° C 72% 1018.3 hPa 0 mm - - -
1787910877 10° C 71% 1018.3 hPa 0 mm - - -
1787910277 10.56° C 72% 1018.3 hPa 0 mm - - -
1787909676 10.56° C 68% 1018.3 hPa 0 mm - - -
1787909159 11.67° C 66% 1018.2 hPa 0 mm - - -
1787909076 11.67° C 66% 1018.2 hPa 0 mm - - -
1787908477 11.11° C 65% 1018.2 hPa 0 mm - - -
1787907876 10° C 71% 1018.1 hPa 0 mm - - -
1787907277 10° C 72% 1018.1 hPa 0 mm - - -
1787906677 10° C 72% 1018.2 hPa 0 mm - - -
1787906084 10° C 75% 1018.1 hPa 0 mm - - -
1787905476 10° C 75% 1018.1 hPa 0 mm - - -
1787904877 9.44° C 76% 1018.2 hPa 0 mm - - -
1787904276 9.44° C 78% 1018 hPa 0 mm - - -
1787903676 8.89° C 79% 1018.1 hPa 0 mm - - -

* Rain latest hour (hover to see other rain measurements)
** Current wind speed in m/s (hover to see current wind gust speed)